• Em Portugal
  • Lista de países
  • Para 7 dias
  • Temperatura da água
  • Mapas de satélite
  • Mapa do tempo
  • Widgets de tempo
  • user-avatar
    Iniciar Sessão

    Previsão horária em Dawei

    Hoje, 25 Setembro, Terça-feira

    Tempo Temperatura Precipitação Vento Pressão Humidade
    00:00 +26°C° 0 mm 1 m/s 756 mmHg 96%
    01:00 +26°C° 0 mm 1 m/s 756 mmHg 96%
    02:00 +26°C° 0 mm 1 m/s 755 mmHg 96%
    03:00 +26°C° 0 mm 1 m/s 755 mmHg 96%
    04:00 +26°C° 0 mm 1 m/s 755 mmHg 96%
    05:00 +26°C° 0 mm 1 m/s 755 mmHg 95%
    06:00 +26°C° 0 mm 1 m/s 755 mmHg 95%
    07:00 +27°C° 0 mm 1 m/s 756 mmHg 93%
    08:00 +29°C° 0.2 mm 1 m/s 756 mmHg 84%
    09:00 +31°C° 0.2 mm 1 m/s 756 mmHg 74%
    10:00 +33°C° 0.2 mm 1 m/s 756 mmHg 65%
    11:00 +33°C° 1.1 mm 1 m/s 755 mmHg 68%
    12:00 +34°C° 1.1 mm 2 m/s 755 mmHg 72%
    13:00 +34°C° 0 mm 2 m/s 755 mmHg 76%
    14:00 +32°C° 1.3 mm 2 m/s 754 mmHg 78%
    15:00 +32°C° 1.3 mm 2 m/s 754 mmHg 79%
    16:00 +31°C° 1.3 mm 2 m/s 753 mmHg 81%
    17:00 +30°C° 0.4 mm 2 m/s 753 mmHg 85%
    18:00 +29°C° 0.4 mm 2 m/s 754 mmHg 89%
    19:00 +28°C° 0.4 mm 1 m/s 754 mmHg 93%
    20:00 +27°C° 0 mm 1 m/s 754 mmHg 94%
    21:00 +27°C° 0 mm 1 m/s 755 mmHg 95%
    22:00 +27°C° 0 mm 1 m/s 755 mmHg 95%
    23:00 +27°C° 0.1 mm 1 m/s 755 mmHg 96%

    Amanhã, 26 Setembro, Quarta-feira

    Tempo Temperatura Precipitação Vento Pressão Humidade
    00:00 +26°C° 0.1 mm 1 m/s 755 mmHg 96%
    01:00 +26°C° 0.1 mm 1 m/s 755 mmHg 96%
    02:00 +26°C° 0 mm 1 m/s 755 mmHg 96%
    03:00 +26°C° 0 mm 1 m/s 754 mmHg 97%
    04:00 +26°C° 0 mm 1 m/s 754 mmHg 97%
    05:00 +26°C° 0 mm 1 m/s 754 mmHg 96%
    06:00 +26°C° 0 mm 1 m/s 754 mmHg 96%
    07:00 +26°C° 0 mm 1 m/s 754 mmHg 95%
    08:00 +29°C° 0 mm 1 m/s 755 mmHg 85%
    09:00 +31°C° 0 mm 1 m/s 755 mmHg 76%
    10:00 +34°C° 0 mm 2 m/s 756 mmHg 66%
    11:00 +34°C° 0.4 mm 2 m/s 755 mmHg 69%
    12:00 +34°C° 0.4 mm 2 m/s 755 mmHg 71%
    13:00 +34°C° 0.4 mm 2 m/s 754 mmHg 73%
    14:00 +32°C° 1 mm 2 m/s 754 mmHg 77%
    15:00 +32°C° 1 mm 2 m/s 753 mmHg 80%
    16:00 +31°C° 1 mm 2 m/s 752 mmHg 84%
    17:00 +30°C° 0.2 mm 2 m/s 753 mmHg 87%
    18:00 +29°C° 0.2 mm 2 m/s 753 mmHg 91%
    19:00 +28°C° 0.2 mm 1 m/s 753 mmHg 95%
    20:00 +28°C° 0.1 mm 1 m/s 754 mmHg 96%
    21:00 +27°C° 0.1 mm 1 m/s 755 mmHg 96%
    22:00 +27°C° 0.1 mm 1 m/s 755 mmHg 97%
    23:00 +27°C° 0.1 mm 1 m/s 755 mmHg 97%

    Depois de amanhã, 27 Setembro, Quinta-feira

    Tempo Temperatura Precipitação Vento Pressão Humidade
    00:00 +27°C° 0.1 mm 1 m/s 755 mmHg 97%
    01:00 +27°C° 0.1 mm 1 m/s 755 mmHg 98%
    02:00 +27°C° 0.2 mm 1 m/s 754 mmHg 98%
    03:00 +26°C° 0.2 mm 1 m/s 754 mmHg 98%
    04:00 +24°C° 0.2 mm 0 m/s 754 mmHg 98%
    05:00 +24°C° 0 mm 0 m/s 754 mmHg 97%
    06:00 +25°C° 0 mm 0 m/s 754 mmHg 97%
    07:00 +25°C° 0 mm 0 m/s 754 mmHg 96%
    08:00 +29°C° 0 mm 1 m/s 755 mmHg 87%
    09:00 +31°C° 0 mm 1 m/s 755 mmHg 78%
    10:00 +33°C° 0 mm 1 m/s 756 mmHg 68%
    11:00 +33°C° 0.5 mm 1 m/s 755 mmHg 70%
    12:00 +34°C° 0.5 mm 2 m/s 755 mmHg 72%
    13:00 +34°C° 0.5 mm 2 m/s 754 mmHg 73%
    14:00 +34°C° 0.8 mm 2 m/s 753 mmHg 77%
    15:00 +32°C° 0.8 mm 2 m/s 753 mmHg 80%
    16:00 +31°C° 0.8 mm 2 m/s 752 mmHg 83%
    17:00 +30°C° 0.1 mm 2 m/s 752 mmHg 87%
    18:00 +29°C° 0.1 mm 1 m/s 753 mmHg 91%
    19:00 +28°C° 0.1 mm 1 m/s 753 mmHg 95%
    20:00 +28°C° 0 mm 1 m/s 754 mmHg 95%
    21:00 +27°C° 0 mm 1 m/s 755 mmHg 96%
    22:00 +25°C° 0 mm 0 m/s 755 mmHg 96%
    23:00 +25°C° 0 mm 0 m/s 755 mmHg 97%

    28 Setembro, Sexta-feira

    Tempo Temperatura Precipitação Vento Pressão Humidade
    00:00 +25°C° 0 mm 0 m/s 755 mmHg 97%
    01:00 +27°C° 0 mm 1 m/s 754 mmHg 97%
    02:00 +27°C° 0 mm 1 m/s 754 mmHg 98%
    03:00 +26°C° 0 mm 1 m/s 754 mmHg 98%
    04:00 +26°C° 0 mm 1 m/s 753 mmHg 98%
    05:00 +27°C° 0 mm 1 m/s 754 mmHg 97%
    06:00 +27°C° 0 mm 1 m/s 754 mmHg 97%
    07:00 +27°C° 0 mm 1 m/s 754 mmHg 96%
    08:00 +29°C° 0 mm 1 m/s 755 mmHg 86%
    09:00 +31°C° 0 mm 1 m/s 755 mmHg 76%
    10:00 +32°C° 0 mm 0 m/s 756 mmHg 67%
    11:00 +34°C° 0 mm 1 m/s 755 mmHg 66%
    12:00 +34°C° 0 mm 1 m/s 754 mmHg 66%
    13:00 +35°C° 0 mm 2 m/s 754 mmHg 66%
    14:00 +34°C° 0.7 mm 2 m/s 753 mmHg 72%
    15:00 +32°C° 0.7 mm 2 m/s 752 mmHg 78%
    16:00 +32°C° 0.7 mm 2 m/s 752 mmHg 83%
    17:00 +30°C° 0.2 mm 2 m/s 752 mmHg 87%
    18:00 +29°C° 0.2 mm 2 m/s 753 mmHg 91%
    19:00 +28°C° 0.2 mm 1 m/s 753 mmHg 95%
    20:00 +28°C° 0 mm 1 m/s 754 mmHg 95%
    21:00 +28°C° 0 mm 1 m/s 754 mmHg 96%
    22:00 +28°C° 0 mm 1 m/s 755 mmHg 96%
    23:00 +28°C° 0 mm 1 m/s 755 mmHg 96%

    29 Setembro, Sábado

    Tempo Temperatura Precipitação Vento Pressão Humidade
    00:00 +28°C° 0 mm 1 m/s 754 mmHg 97%
    01:00 +27°C° 0 mm 1 m/s 754 mmHg 97%
    02:00 +27°C° 0.1 mm 1 m/s 753 mmHg 97%
    03:00 +27°C° 0.1 mm 1 m/s 753 mmHg 98%
    04:00 +27°C° 0.1 mm 1 m/s 753 mmHg 98%
    05:00 +27°C° 0.1 mm 1 m/s 753 mmHg 97%
    06:00 +28°C° 0.1 mm 1 m/s 754 mmHg 97%
    07:00 +28°C° 0.1 mm 1 m/s 754 mmHg 97%
    08:00 +29°C° 0.1 mm 1 m/s 754 mmHg 91%
    09:00 +30°C° 0.1 mm 1 m/s 755 mmHg 85%
    10:00 +31°C° 0.1 mm 1 m/s 755 mmHg 80%
    11:00 +32°C° 0.7 mm 2 m/s 754 mmHg 79%
    12:00 +32°C° 0.7 mm 2 m/s 754 mmHg 78%
    13:00 +34°C° 0.7 mm 2 m/s 753 mmHg 77%
    14:00 +32°C° 0.8 mm 2 m/s 752 mmHg 80%
    15:00 +32°C° 0.8 mm 2 m/s 752 mmHg 82%
    16:00 +31°C° 0.8 mm 3 m/s 752 mmHg 85%
    17:00 +30°C° 0.3 mm 2 m/s 752 mmHg 89%
    18:00 +29°C° 0.3 mm 2 m/s 753 mmHg 93%
    19:00 +28°C° 0.3 mm 2 m/s 753 mmHg 96%
    20:00 +28°C° 0 mm 1 m/s 754 mmHg 97%
    21:00 +28°C° 0 mm 1 m/s 754 mmHg 97%
    22:00 +28°C° 0 mm 1 m/s 754 mmHg 97%
    23:00 +28°C° 0.1 mm 1 m/s 754 mmHg 98%

    30 Setembro, Domingo

    Tempo Temperatura Precipitação Vento Pressão Humidade
    00:00 +28°C° 0.1 mm 1 m/s 754 mmHg 98%
    01:00 +28°C° 0.1 mm 1 m/s 753 mmHg 98%
    02:00 +28°C° 0.4 mm 1 m/s 753 mmHg 98%
    03:00 +28°C° 0.4 mm 1 m/s 753 mmHg 98%
    04:00 +28°C° 0.4 mm 1 m/s 753 mmHg 98%
    05:00 +28°C° 0.3 mm 1 m/s 753 mmHg 98%
    06:00 +28°C° 0.3 mm 1 m/s 753 mmHg 97%
    07:00 +28°C° 0.3 mm 1 m/s 754 mmHg 97%
    08:00 +29°C° 0.3 mm 1 m/s 754 mmHg 96%
    09:00 +29°C° 0.3 mm 1 m/s 754 mmHg 94%
    10:00 +30°C° 0.3 mm 1 m/s 755 mmHg 92%
    11:00 +30°C° 0.2 mm 1 m/s 754 mmHg 89%
    12:00 +31°C° 0.2 mm 1 m/s 753 mmHg 86%
    13:00 +31°C° 0.2 mm 1 m/s 753 mmHg 83%
    14:00 +31°C° 0.2 mm 2 m/s 752 mmHg 84%
    15:00 +31°C° 0.2 mm 2 m/s 752 mmHg 85%
    16:00 +31°C° 0.2 mm 2 m/s 751 mmHg 86%
    17:00 +30°C° 0.1 mm 2 m/s 752 mmHg 89%
    18:00 +29°C° 0.1 mm 1 m/s 752 mmHg 92%
    19:00 +29°C° 0.1 mm 1 m/s 753 mmHg 95%
    20:00 +28°C° 1.1 mm 1 m/s 753 mmHg 96%
    21:00 +28°C° 1.1 mm 1 m/s 754 mmHg 96%
    22:00 +28°C° 1.1 mm 1 m/s 754 mmHg 97%
    23:00 +28°C° 1.4 mm 1 m/s 754 mmHg 97%
    Mostrar mais